RH
91 92 85 80 79 77 76 79 80 82 81 79 77 75 72 73 74 71 66 68 67 63 64 65 71 75 73 74 72 72 78 79 76 77 78 75 70 70 72 76 75 77 75
85 92 86 82 80 79 78 80 82 82 82 81 78 74 73 74 74 71 67 68 68 66 69 72 72 72 73 74 76 74 73 79 80 82 84 82 80 67 71 77 77 80 72
94 89 87 86 84 82 81 82 82 82 80 78 76 74 72 73 74 74 69 68 69 70 75 79 77 75 76 76 76 74 73 74 80 84 85 91 89 74 64 67 74 72 71
96 96 93 86 84 82 83 82 83 82 82 82 80 78 76 76 75 76 75 71 69 74 77 80 78 78 78 77 75 72 71 74 79 85 93 91 87 79 76 66 65 64 70
96 96 91 86 84 83 82 81 81 82 83 84 85 85 83 80 79 78 78 79 77 75 76 80 82 82 80 79 78 74 72 73 86 88 93 94 92 80 73 76 67 64 68
75 77 75 72 64 61 60 61 61 60 60 61 64 69 72 75 76 75 79 85 86 85 82 78 78 82 85 84 81 79 76 81 88 94 95 92 87 76 76 78 72 68 68
60 65 65 64 61 63 63 61 60 57 60 60 59 60 61 64 61 61 66 71 75 82 84 82 81 82 84 85 83 83 83 86 94 98 97 96 95 79 76 76 75 71 69
54 55 56 63 64 65 64 63 63 62 61 60 60 60 60 61 60 62 63 65 66 70 76 83 83 81 83 81 79 85 88 90 91 96 97 98 91 80 75 73 76 76 72
60 59 62 63 62 63 67 66 65 64 63 63 64 64 63 64 64 62 64 64 63 64 66 71 75 80 83 84 85 86 88 93 96 97 92 98 91 81 73 73 75 76 75
65 68 68 70 68 70 72 69 68 67 66 65 66 67 67 66 67 65 69 68 64 64 65 64 67 68 76 84 89 89 90 93 97 97 98 98 87 80 71 70 74 74 77
67 72 72 73 75 74 70 70 73 70 69 69 70 69 71 74 75 72 73 71 69 65 66 64 65 66 69 78 87 93 95 98 97 99 99 94 89 84 79 74 69 73 75
72 74 75 76 79 78 62 84 84 74 80 78 77 78 76 79 81 74 78 74 74 72 70 68 68 68 73 87 95 94 99 98 99 99 99 93 89 84 80 79 80 77 78
74 73 73 75 82 84 86 91 92 92 89 86 83 81 82 82 89 88 90 90 88 80 81 80 84 84 87 87 91 95 97 99 94 90 93 95 91 87 83 82 79 78 78
68 72 73 78 82 86 91 94 94 93 92 91 91 88 96 98 98 98 98 97 97 95 95 95 96 91 88 86 87 88 91 97 89 90 90 96 94 89 83 80 81 81 79
67 71 74 80 84 85 90 95 96 97 97 96 97 95 97 98 98 98 98 98 98 98 98 98 97 94 95 92 88 86 85 90 95 99 100 99 96 90 84 77 70 72 75
65 70 75 79 83 84 91 92 97 97 96 97 97 96 94 97 97 98 98 98 98 98 99 99 98 98 97 96 92 89 87 88 90 92 97 97 92 90 85 77 74 72 71
67 70 75 80 80 87 89 93 96 96 92 97 96 93 92 94 96 96 98 98 98 98 97 97 94 97 97 92 94 92 90 88 88 88 87 94 93 89 86 81 80 78 77
67 71 77 70 81 86 89 94 95 96 96 96 96 95 89 88 91 94 97 97 97 97 96 96 94 93 97 96 94 90 96 90 90 87 88 90 94 92 93 88 87 86 82
66 73 79 80 81 84 87 92 93 91 95 96 95 95 88 85 84 90 93 94 93 94 94 90 91 96 93 81 77 87 90 94 93 80 88 85 88 91 94 89 86 88 87
68 77 79 82 83 86 93 93 94 94 94 96 95 93 87 87 85 88 90 91 88 90 88 85 88 87 93 86 75 81 92 93 92 90 85 71 79 90 91 90 87 83 86
72 76 80 80 82 91 93 92 94 94 95 95 94 88 87 85 86 87 92 93 90 90 87 77 69 70 73 76 93 89 93 89 91 84 64 64 70 82 82 85 86 84 83
68 74 78 78 82 88 93 93 95 95 95 96 94 89 89 87 86 76 87 90 91 91 88 84 68 73 70 67 84 95 96 82 73 70 67 68 85 81 79 71 75 78 86
74 74 72 76 81 86 87 93 94 93 93 92 92 93 91 90 85 84 84 86 88 92 94 95 95 89 82 72 74 92 97 86 86 85 85 84 96 93 82 76 77 79 84
76 76 73 76 80 81 87 88 86 90 90 93 94 94 87 88 85 83 84 86 86 88 87 92 86 96 97 91 83 71 78 84 90 95 89 93 94 90 79 72 71 76 83
73 76 79 80 81 83 87 88 91 89 94 94 94 88 87 84 87 82 83 86 87 88 88 89 94 93 97 97 97 96 94 91 86 94 97 96 87 97 86 72 64 73 83
80 79 82 80 79 83 88 89 90 90 89 93 92 91 86 84 85 88 80 84 84 86 88 86 92 92 94 93 93 95 80 91 89 90 92 76 74 90 85 80 75 82 86
Wind_Speed
2 4 9 9 8 7 7 7 7 8 8 7 7 6 6 6 6 6 5 5 4 4 4 5 6 6 6 6 6 7 7 8 7 6 6 6 5 5 5 4 4 3 4
4 4 9 9 8 7 7 7 7 6 6 6 5 5 5 5 5 5 4 4 4 4 4 4 2 4 4 4 4 5 5 5 5 6 6 6 5 3 4 3 2 2 3
4 3 5 8 7 7 6 5 5 5 5 4 4 4 4 3 3 4 3 3 3 3 5 8 4 3 2 2 3 3 3 3 3 3 3 2 3 3 2 1 2 1 1
5 5 6 9 8 8 7 6 5 5 4 4 4 5 5 5 4 3 3 3 3 4 5 5 2 1 1 2 3 4 3 2 0 1 2 2 3 6 6 4 4 4 2
7 6 9 13 13 12 12 11 11 11 11 10 10 10 8 7 7 7 6 4 4 5 6 7 8 5 5 4 4 5 5 4 3 2 2 3 3 6 10 11 7 6 4
6 6 11 14 14 13 13 12 11 11 11 10 10 10 10 11 12 12 12 11 9 7 7 8 8 8 8 8 7 7 6 5 4 2 3 5 5 9 11 11 9 8 7
7 7 9 15 14 14 13 13 12 10 12 12 11 11 11 11 12 13 13 13 12 11 11 11 10 10 10 9 10 10 8 6 4 3 4 5 5 11 10 10 11 10 10
8 7 8 13 15 14 14 13 14 13 13 13 13 14 13 13 13 13 13 13 13 14 13 13 12 12 11 10 11 11 9 8 4 4 5 4 8 12 13 11 11 12 11
7 8 7 7 9 13 14 13 13 13 13 13 14 14 13 13 13 13 14 14 13 13 13 13 12 12 12 13 12 10 9 9 6 4 5 4 9 12 13 13 12 12 12
7 7 7 6 6 6 6 12 12 12 12 12 13 12 12 12 12 13 12 13 13 13 13 13 12 13 13 11 10 11 9 8 5 5 4 4 12 14 15 15 14 12 14
6 6 6 6 6 5 6 6 9 10 11 11 9 11 8 5 6 7 11 13 14 14 14 13 13 13 14 12 11 10 8 3 5 4 3 10 15 17 17 17 16 16 15
4 4 5 5 6 6 5 6 5 5 4 5 5 6 5 6 5 7 9 13 14 14 13 14 14 13 10 4 4 7 3 4 3 4 3 12 17 19 19 18 17 16 16
3 3 5 4 5 6 5 3 3 3 3 4 6 6 5 5 4 4 4 4 4 10 5 6 6 4 6 4 4 4 5 4 3 4 6 11 15 17 17 15 15 15 16
4 3 3 4 5 5 3 3 3 3 3 4 4 6 4 3 4 4 3 4 4 4 6 5 4 5 6 6 5 6 5 4 4 4 6 10 12 13 12 12 11 12 14
5 3 3 3 4 3 4 3 4 4 4 4 4 5 4 4 4 4 4 4 4 4 4 6 5 5 5 6 5 5 6 6 5 3 2 7 9 10 12 12 11 12 11
5 4 3 3 2 3 3 3 3 3 3 4 4 4 5 3 3 4 4 4 4 4 4 4 4 5 5 4 6 6 6 5 5 5 3 4 8 9 11 12 12 12 11
3 4 4 4 3 4 3 2 3 3 3 3 3 5 5 4 5 5 4 4 4 4 5 5 5 4 4 5 6 5 5 6 5 5 5 4 5 8 11 13 12 11 12
5 5 3 3 3 3 3 2 2 3 2 3 3 3 5 5 5 5 4 4 4 4 3 4 5 5 5 4 5 5 4 5 5 5 5 4 4 4 10 18 19 17 15
6 5 3 3 2 2 2 3 3 3 2 2 3 3 5 5 5 4 4 4 5 4 4 4 4 4 5 5 7 5 5 4 4 3 6 6 6 6 6 14 18 21 20
4 4 3 2 2 2 2 2 2 2 1 1 2 2 4 3 5 4 4 5 4 4 4 4 4 4 3 5 6 5 4 4 4 5 5 5 6 8 9 9 8 8 17
4 4 4 4 2 1 1 1 1 1 1 1 2 3 3 4 5 5 4 4 4 4 5 5 6 8 7 7 4 4 3 3 5 4 4 7 9 9 10 9 7 7 7
6 6 5 4 3 3 2 1 1 1 2 2 2 2 2 3 4 4 4 4 5 4 5 5 6 4 3 6 4 1 4 3 4 5 5 7 8 6 8 10 9 10 8
7 7 6 6 5 3 2 1 1 1 1 1 1 1 2 2 3 4 4 4 5 4 4 4 5 6 3 3 4 2 3 2 5 2 4 5 5 3 5 6 7 7 7
7 6 6 4 3 3 4 2 3 2 2 2 2 1 3 3 2 2 3 3 3 3 4 4 4 3 4 4 4 5 2 2 3 5 1 3 4 4 5 5 6 7 7
7 6 3 4 3 3 3 3 2 3 3 2 2 3 3 3 2 2 2 3 4 3 3 4 5 5 3 2 2 3 2 2 1 2 4 5 3 4 4 5 6 5 5
3 3 3 4 4 4 4 6 6 7 6 4 3 3 4 3 3 3 2 2 2 2 2 3 3 2 2 1 1 2 3 3 3 2 2 6 6 2 2 5 6 5 4
Wind_Direction
208 166 143 140 129 111 97 90 80 71 67 64 62 63 59 56 51 54 53 49 40 39 33 27 37 55 59 58 49 46 41 44 51 71 64 57 56 46 86 75 79 57 46
135 163 143 136 127 112 98 86 77 68 62 59 52 48 49 45 39 39 43 41 35 32 17 1 43 44 49 50 43 39 42 43 42 51 58 44 16 38 61 63 69 69 70
102 128 120 122 119 109 100 95 88 73 61 52 48 37 36 30 25 20 17 12 9 2 0 2 75 52 56 39 9 2 16 30 30 30 32 26 332 331 353 306 273 281 351
87 84 88 97 91 84 72 64 54 43 35 23 19 13 2 352 346 342 338 334 327 325 327 336 340 316 310 313 316 314 312 314 354 346 340 303 300 300 284 251 246 237 227
65 69 78 80 75 70 63 57 53 48 44 34 28 19 360 337 326 320 311 308 308 305 301 303 307 272 268 264 274 286 290 293 288 299 260 265 272 276 282 263 238 227 214
64 61 77 78 75 67 62 56 52 46 42 33 27 24 19 15 17 14 8 3 339 294 281 282 279 283 284 267 270 275 279 274 275 286 283 275 270 267 291 262 221 224 217
67 48 62 72 69 62 55 50 43 41 38 33 30 28 25 27 23 22 18 12 358 341 319 294 284 278 275 279 267 267 266 268 268 262 266 274 279 282 294 266 225 229 228
78 58 50 53 61 55 51 48 46 45 42 39 36 34 35 32 28 26 23 19 14 10 358 344 320 304 292 283 280 276 266 260 253 245 253 260 271 280 283 291 251 232 233
55 60 50 43 50 47 49 46 45 44 42 37 31 29 30 28 23 19 15 10 6 2 5 6 358 341 323 302 281 269 258 248 244 240 242 243 256 271 274 274 287 248 237
54 54 50 47 46 51 44 42 44 44 39 34 29 27 26 23 19 15 10 1 358 353 355 359 355 354 353 328 311 282 267 250 248 245 248 247 266 273 273 271 270 268 242
46 44 46 45 40 39 53 35 37 37 37 34 28 25 24 15 7 16 5 7 2 356 350 348 350 351 354 348 340 329 300 248 243 230 234 252 264 266 267 269 268 263 261
70 46 48 46 39 36 40 27 30 29 31 33 28 24 22 21 6 18 9 10 7 8 360 357 353 350 350 337 330 336 316 290 262 252 249 257 269 280 279 273 269 265 261
104 61 43 44 43 43 31 27 22 26 26 23 26 29 22 21 10 10 3 358 355 2 356 354 350 346 339 337 332 326 314 305 275 276 270 270 283 293 302 300 285 272 266
106 92 59 50 48 41 38 31 21 23 24 25 28 33 28 15 12 8 9 356 1 351 350 349 344 331 337 332 329 323 321 309 291 284 282 280 289 296 303 306 293 300 274
122 116 67 61 57 53 52 31 25 23 39 34 31 24 28 21 14 358 3 357 355 348 350 346 346 347 344 337 329 325 317 318 313 286 278 289 299 306 314 318 318 315 293
145 137 138 113 112 82 66 54 49 55 39 41 29 18 25 30 14 17 360 359 356 349 336 335 341 339 336 341 338 333 315 312 310 316 317 316 325 335 341 330 329 331 326
166 160 169 147 122 85 81 77 55 39 44 38 19 15 23 27 26 17 7 358 349 340 348 349 350 341 348 346 335 327 327 323 318 326 335 344 344 351 358 357 356 350 343
175 183 150 114 105 98 85 71 47 43 43 27 15 8 16 22 27 18 7 358 345 346 358 351 351 347 333 354 327 314 323 322 322 338 0 8 22 35 44 53 47 39 32
192 166 165 145 116 129 78 62 44 37 36 13 6 4 4 12 18 21 2 348 351 355 359 356 346 352 329 353 325 317 325 317 339 40 56 40 36 41 46 45 53 46 44
181 179 167 169 174 106 64 28 27 21 356 359 358 349 7 10 22 21 6 2 360 358 351 351 6 337 314 324 319 325 330 11 61 62 52 44 38 46 45 37 37 36 36
183 177 195 192 198 126 54 28 5 287 306 309 324 342 13 29 21 27 8 3 359 9 348 353 4 2 359 340 339 342 345 33 61 52 62 48 42 58 52 43 31 26 24
185 203 212 214 199 192 174 189 170 238 274 268 298 338 31 43 37 34 20 0 359 354 356 347 11 352 355 356 344 327 354 326 21 46 54 64 50 53 56 50 39 32 23
200 206 209 212 211 208 173 106 17 309 295 318 302 310 336 4 41 37 21 10 359 6 359 347 352 349 342 338 6 41 4 338 332 340 61 70 71 55 74 69 43 34 30
209 206 213 216 208 207 179 177 204 207 241 249 273 279 316 345 2 19 14 8 352 350 1 336 347 339 343 351 334 10 319 288 318 320 328 67 75 72 78 63 45 27 19
196 201 199 219 226 234 206 210 215 240 238 248 261 290 287 282 279 322 344 344 338 347 340 333 336 348 346 343 1 344 328 309 322 291 312 344 12 31 40 61 54 38 19
167 164 209 226 254 254 233 229 226 236 249 258 261 267 272 271 275 261 267 258 272 282 299 300 303 321 337 5 58 25 325 333 340 326 285 318 323 335 37 43 34 8 9